Flag for Austria Weather past 2 weeks in Jennersdorf, Burgenland, Austria

Now
58 °F

Passing clouds.


Feels Like: 58 °F
Forecast: 51 / 71 °F
Wind: 1 mph from Southwest

Location: Murska Sobota

Current Time: Apr 26, 2015 at 8:59:33 AM

Latest Report: Apr 26, 2015 at 8:00 AM


Visibility: 6 mi

Pressure: 29.86 "Hg

Humidity: 66%

Dew point: 46 °F

Location of JennersdorfLocation

Historic Weather in Jennersdorf — Graph

°F

Jennersdorf temperature yesterday

Maximum temperature yesterday: 72 °F (at 4:00 PM)
Minimum temperature yesterday: 39 °F (at 6:00 AM)
Average temperature yesterday: 57 °F

Past Weeks' High & Low Weather Summary

 TemperatureHumidityPressure
High78 °F (Apr 16, 2:00 PM)96% (Apr 25, 6:00 AM)30.44 "Hg (Apr 25, 6:00 AM)
Low31 °F (Apr 19, 6:00 AM)20% (Apr 21, 6:00 PM)29.80 "Hg (Apr 17, 6:00 PM)
Average56 °F58%30.11 "Hg
* Reported Apr 11 7:00 AM — Apr 26 7:00 AM, Jennersdorf, Weather by CustomWeather, © 2015

Note: Actual official high and low records may vary slightly from our data, if they occured in-between our weather recording intervals... More about our weather records

Advertising

Jennersdorf weather history for previous 24 hours

 ConditionsComfort  
Time TempWeatherWind HumidityBarometerVisibility
7:00 AM
Sun, Apr 26
52 °FScattered clouds.No wind79%29.86 "Hg6 mi
6:00 AM54 °FCool.1 mph70%29.85 "HgN/A
5:00 AM56 °FCool.5 mph64%29.84 "HgN/A
4:00 AM57 °FCool.6 mph62%29.84 "HgN/A
3:00 AM59 °FRefreshingly cool.6 mph57%29.83 "HgN/A
2:00 AM59 °FRefreshingly cool.6 mph59%29.84 "HgN/A
1:00 AM60 °FCool.5 mph62%29.84 "HgN/A
12:00 AM60 °FCool.5 mph62%29.85 "HgN/A
11:00 PM
Sat, Apr 25
61 °FCool.3 mph61%29.85 "HgN/A
10:00 PM61 °FRefreshingly cool.5 mph57%29.85 "HgN/A
9:00 PM62 °FRefreshingly cool.3 mph55%29.86 "HgN/A
8:00 PM64 °FPassing clouds.3 mph52%29.85 "Hg12 mi
7:00 PM67 °FMild.5 mph47%29.85 "HgN/A
6:00 PM70 °FMild.6 mph44%29.85 "HgN/A
5:00 PM71 °FMild.7 mph43%29.86 "HgN/A
4:00 PM72 °FMild.7 mph41%29.87 "HgN/A
3:00 PM72 °FScattered clouds.5 mph42%29.89 "Hg19 mi
2:00 PM71 °FScattered clouds.5 mph45%29.91 "Hg19 mi
1:00 PM69 °FMild.5 mph51%29.95 "HgN/A
12:00 PM68 °FMild.3 mph49%29.96 "HgN/A
11:00 AM64 °FMild.3 mph59%29.98 "HgN/A
10:00 AM61 °FCool.2 mph65%29.99 "HgN/A
9:00 AM55 °FCool.2 mph76%30.01 "HgN/A
8:00 AM50 °FPassing clouds.1 mph86%30.01 "Hg6 mi
Weather by CustomWeather, © 2015

See weather overviewHow to use our weather pages